Tiempo cada hora Barsuki (Uzmeny)

Hoy, 27 Febrero, Sábado

Tiempo Temperatura Precipitaciones Viento Presión Humedad
00:00 0°C° 0 mm 4 mps 747 mmHg 91%
01:00 0°C° 0 mm 4 mps 747 mmHg 92%
02:00 0°C° 0 mm 4 mps 747 mmHg 94%
03:00 0°C° 0 mm 4 mps 747 mmHg 94%
04:00 0°C° 0 mm 4 mps 747 mmHg 93%
05:00 0°C° 0 mm 4 mps 747 mmHg 92%
06:00 0°C° 0.1 mm 4 mps 747 mmHg 93%
07:00 0°C° 0.1 mm 4 mps 748 mmHg 94%
08:00 -1°C° 0.1 mm 4 mps 748 mmHg 94%
09:00 -1°C° 0.1 mm 4 mps 749 mmHg 95%
10:00 -1°C° 0.1 mm 4 mps 749 mmHg 95%
11:00 -1°C° 0.1 mm 4 mps 750 mmHg 96%
12:00 -1°C° 0 mm 4 mps 750 mmHg 93%
13:00 -1°C° 0 mm 5 mps 751 mmHg 90%
14:00 -1°C° 0 mm 5 mps 752 mmHg 87%
15:00 -1°C° 0 mm 4 mps 752 mmHg 87%
16:00 -1°C° 0 mm 4 mps 752 mmHg 88%
17:00 -1°C° 0 mm 4 mps 753 mmHg 88%
18:00 -1°C° 0 mm 4 mps 753 mmHg 89%
19:00 -1°C° 0 mm 4 mps 754 mmHg 90%
20:00 -2°C° 0 mm 4 mps 754 mmHg 91%
21:00 -1°C° 0 mm 3 mps 754 mmHg 91%
22:00 -1°C° 0 mm 3 mps 755 mmHg 92%
23:00 -1°C° 0 mm 3 mps 755 mmHg 92%

Mañana, 28 Febrero, Domingo

Tiempo Temperatura Precipitaciones Viento Presión Humedad
00:00 -1°C° 0 mm 3 mps 755 mmHg 93%
01:00 -2°C° 0 mm 3 mps 755 mmHg 93%
02:00 -2°C° 0 mm 3 mps 755 mmHg 94%
03:00 -2°C° 0 mm 3 mps 755 mmHg 91%
04:00 -3°C° 0 mm 4 mps 755 mmHg 89%
05:00 -3°C° 0 mm 4 mps 755 mmHg 87%
06:00 -3°C° 0.2 mm 4 mps 754 mmHg 90%
07:00 -2°C° 0.2 mm 4 mps 754 mmHg 92%
08:00 -2°C° 0.2 mm 4 mps 754 mmHg 95%
09:00 -1°C° 0.7 mm 4 mps 753 mmHg 96%
10:00 -1°C° 0.7 mm 4 mps 753 mmHg 96%
11:00 0°C° 0.7 mm 4 mps 752 mmHg 97%
12:00 0°C° 0.1 mm 4 mps 753 mmHg 94%
13:00 0°C° 0.1 mm 4 mps 753 mmHg 91%
14:00 +1°C° 0.1 mm 4 mps 753 mmHg 88%
15:00 +1°C° 0 mm 4 mps 753 mmHg 89%
16:00 +1°C° 0 mm 3 mps 753 mmHg 90%
17:00 +1°C° 0 mm 3 mps 753 mmHg 91%
18:00 +1°C° 0 mm 3 mps 754 mmHg 92%
19:00 +1°C° 0 mm 3 mps 755 mmHg 93%
20:00 0°C° 0 mm 3 mps 756 mmHg 94%
21:00 +1°C° 0 mm 2 mps 756 mmHg 94%
22:00 +1°C° 0 mm 2 mps 756 mmHg 93%
23:00 +1°C° 0 mm 2 mps 756 mmHg 93%

Pasado mañana, 1 Marzo, Lunes

Tiempo Temperatura Precipitaciones Viento Presión Humedad
00:00 +1°C° 0 mm 2 mps 757 mmHg 93%
01:00 +1°C° 0 mm 2 mps 757 mmHg 93%
02:00 0°C° 0 mm 3 mps 757 mmHg 93%
03:00 -1°C° 0 mm 3 mps 757 mmHg 94%
04:00 -1°C° 0 mm 2 mps 757 mmHg 95%
05:00 -2°C° 0 mm 2 mps 757 mmHg 96%
06:00 -1°C° 0 mm 3 mps 757 mmHg 96%
07:00 -1°C° 0 mm 3 mps 757 mmHg 96%
08:00 -2°C° 0 mm 4 mps 757 mmHg 96%
09:00 -1°C° 0 mm 4 mps 757 mmHg 95%
10:00 -1°C° 0 mm 4 mps 757 mmHg 94%
11:00 0°C° 0 mm 4 mps 757 mmHg 94%
12:00 0°C° 0 mm 4 mps 757 mmHg 91%
13:00 +2°C° 0 mm 3 mps 757 mmHg 89%
14:00 +3°C° 0 mm 3 mps 757 mmHg 87%
15:00 +2°C° 0 mm 3 mps 757 mmHg 87%
16:00 +2°C° 0 mm 3 mps 756 mmHg 88%
17:00 +2°C° 0 mm 3 mps 755 mmHg 89%
18:00 +1°C° 0 mm 4 mps 755 mmHg 88%
19:00 +3°C° 0 mm 4 mps 755 mmHg 87%
20:00 +2°C° 0 mm 5 mps 754 mmHg 85%
21:00 +1°C° 0 mm 5 mps 754 mmHg 85%
22:00 +1°C° 0 mm 5 mps 754 mmHg 85%
23:00 +1°C° 0 mm 5 mps 754 mmHg 85%

2 Marzo, Martes

Tiempo Temperatura Precipitaciones Viento Presión Humedad
00:00 0°C° 0 mm 5 mps 754 mmHg 87%
01:00 0°C° 0 mm 5 mps 754 mmHg 88%
02:00 -1°C° 0 mm 5 mps 754 mmHg 89%
03:00 -1°C° 0 mm 5 mps 754 mmHg 88%
04:00 -1°C° 0 mm 5 mps 754 mmHg 87%
05:00 -1°C° 0 mm 5 mps 754 mmHg 86%
06:00 -1°C° 0 mm 5 mps 754 mmHg 85%
07:00 -1°C° 0 mm 5 mps 754 mmHg 84%
08:00 -1°C° 0 mm 5 mps 754 mmHg 84%
09:00 +1°C° 0 mm 5 mps 754 mmHg 78%
10:00 +2°C° 0 mm 5 mps 754 mmHg 73%
11:00 +3°C° 0 mm 6 mps 754 mmHg 68%
12:00 +4°C° 0 mm 6 mps 754 mmHg 67%
13:00 +4°C° 0 mm 6 mps 754 mmHg 66%
14:00 +4°C° 0 mm 6 mps 754 mmHg 65%
15:00 +5°C° 0 mm 5 mps 754 mmHg 68%
16:00 +4°C° 0 mm 4 mps 754 mmHg 70%
17:00 +3°C° 0 mm 4 mps 754 mmHg 73%
18:00 +1°C° 0 mm 4 mps 755 mmHg 75%
19:00 0°C° 0 mm 4 mps 755 mmHg 78%
20:00 -1°C° 0 mm 4 mps 756 mmHg 80%
21:00 -1°C° 0 mm 4 mps 756 mmHg 82%
22:00 -2°C° 0 mm 4 mps 757 mmHg 84%
23:00 -1°C° 0 mm 3 mps 757 mmHg 85%

3 Marzo, Miércoles

Tiempo Temperatura Precipitaciones Viento Presión Humedad
00:00 -2°C° 0 mm 3 mps 757 mmHg 87%
01:00 -2°C° 0 mm 3 mps 757 mmHg 88%
02:00 -2°C° 0 mm 3 mps 757 mmHg 89%
03:00 -2°C° 0 mm 3 mps 757 mmHg 89%
04:00 -4°C° 0 mm 3 mps 757 mmHg 88%
05:00 -3°C° 0 mm 2 mps 757 mmHg 88%
06:00 -4°C° 0 mm 3 mps 757 mmHg 88%
07:00 -2°C° 0 mm 3 mps 757 mmHg 87%
08:00 -2°C° 0 mm 3 mps 757 mmHg 86%
09:00 -1°C° 0 mm 3 mps 757 mmHg 79%
10:00 +1°C° 0 mm 3 mps 758 mmHg 72%
11:00 +2°C° 0 mm 3 mps 758 mmHg 65%
12:00 +3°C° 0 mm 3 mps 757 mmHg 64%
13:00 +3°C° 0 mm 4 mps 757 mmHg 63%
14:00 +4°C° 0 mm 4 mps 757 mmHg 61%
15:00 +4°C° 0 mm 3 mps 757 mmHg 68%
16:00 +3°C° 0 mm 3 mps 756 mmHg 75%
17:00 +3°C° 0 mm 2 mps 756 mmHg 82%
18:00 +3°C° 0 mm 2 mps 756 mmHg 84%
19:00 +2°C° 0 mm 2 mps 755 mmHg 87%
20:00 +2°C° 0 mm 2 mps 755 mmHg 89%
21:00 +1°C° 0 mm 2 mps 755 mmHg 91%
22:00 +1°C° 0 mm 2 mps 755 mmHg 92%
23:00 -1°C° 0 mm 2 mps 754 mmHg 94%

4 Marzo, Jueves

Tiempo Temperatura Precipitaciones Viento Presión Humedad
00:00 -1°C° 0 mm 2 mps 754 mmHg 93%
01:00 -1°C° 0 mm 2 mps 753 mmHg 92%
02:00 -1°C° 0 mm 3 mps 752 mmHg 91%
03:00 -1°C° 0 mm 3 mps 752 mmHg 92%
04:00 -1°C° 0 mm 3 mps 751 mmHg 92%
05:00 -2°C° 0 mm 4 mps 750 mmHg 92%
06:00 -2°C° 0 mm 4 mps 749 mmHg 92%
07:00 -1°C° 0 mm 5 mps 749 mmHg 92%
08:00 -2°C° 0 mm 6 mps 748 mmHg 92%
09:00 -1°C° 0 mm 5 mps 748 mmHg 90%
10:00 -1°C° 0 mm 5 mps 747 mmHg 88%
11:00 0°C° 0 mm 5 mps 747 mmHg 86%
12:00 0°C° 0 mm 5 mps 746 mmHg 86%
13:00 0°C° 0 mm 4 mps 746 mmHg 87%
14:00 0°C° 0 mm 4 mps 746 mmHg 87%
15:00 0°C° 0 mm 4 mps 746 mmHg 86%
16:00 0°C° 0 mm 4 mps 746 mmHg 84%
17:00 0°C° 0 mm 4 mps 745 mmHg 82%
18:00 -1°C° 0 mm 4 mps 746 mmHg 80%
19:00 -2°C° 0 mm 4 mps 746 mmHg 77%
20:00 -3°C° 0 mm 4 mps 746 mmHg 74%
21:00 -3°C° 0 mm 4 mps 747 mmHg 75%
22:00 -4°C° 0 mm 3 mps 747 mmHg 77%
23:00 -4°C° 0 mm 3 mps 748 mmHg 78%
Mostrar más

Necesitamos Su Consentimiento

Meteoprog y nuestros Proveedores de Servicios pueden almacenar y acceder a sus datos personales como cookies, identificadores de dispositivo u otras tecnologías similares de su dispositivo y procesar dichos datos para personalizar contenido y anuncios, además de ofrecer funciones de redes sociales y analizar el tráfico.

  • Almacenar y/o acceder a información en su dispositivo

    Se puede almacenar o acceder a cookies, identificadores de dispositivo u otra información de su dispositivo para los fines anteriormente indicados.

  • Anuncios y contenido personalizados, medición de anuncios y contenido, percepciones del público, y desarrollo de productos

    Los anuncios y el contenido pueden personalizarse en base a su perfil. Se pueden añadir más datos para personalizar mejor los anuncios y contenidos. Se puede medir el rendimiento de los anuncios y contenidos. Se puede obtener la percepción sobre el público que ha visto los anuncios y contenidos. Dichos datos pueden usarse para desarrollar o mejorar la experiencia del usuario, sistemas y software.

Al hacer clic en ‘Estoy De Acuerdo’ usted permitirá el uso de las cookies, identificadores de dispositivo, balizas web u otras tecnologías similares indicadas. Su configuración puede cambiarse desde el navegador de su dispositivo.

Para ciertos fines, los intereses legítimos pueden ser considerados por encima del consentimiento. Puede leer más sobre ello en nuestra Política de Privacidad y Cookies.